Year,Month,Day,Hour,Minute,Value (Times are PST for temperature in C)
2010,07,06,00,00,10.10
2010,07,06,00,01,10.10
2010,07,06,00,02,10.10
2010,07,06,00,03,10.10
2010,07,06,00,04,10.10
2010,07,06,00,05,10.10
2010,07,06,00,06,10.10
2010,07,06,00,07,10.10
2010,07,06,00,08,10.10
2010,07,06,00,09,10.10
2010,07,06,00,10,10.00
2010,07,06,00,11,10.00
2010,07,06,00,12,10.00
2010,07,06,00,17,9.90
2010,07,06,00,18,9.90
2010,07,06,00,19,9.90
2010,07,06,00,20,9.90
2010,07,06,00,21,9.90
2010,07,06,00,22,9.90
2010,07,06,00,23,9.80
2010,07,06,00,24,9.80
2010,07,06,00,25,9.80
2010,07,06,00,26,9.80
2010,07,06,00,27,9.80
2010,07,06,00,28,9.80
2010,07,06,00,29,9.80
2010,07,06,00,30,9.80
2010,07,06,00,31,9.80
2010,07,06,00,32,9.80
2010,07,06,00,33,9.80
2010,07,06,00,34,9.80
2010,07,06,00,35,9.80
2010,07,06,00,36,9.80
2010,07,06,00,37,9.80
2010,07,06,00,38,9.80
2010,07,06,00,39,9.80
2010,07,06,00,40,9.80
2010,07,06,00,41,9.80
2010,07,06,00,42,9.80
2010,07,06,00,43,9.80
2010,07,06,00,44,9.80
2010,07,06,00,45,9.80
2010,07,06,00,46,9.80
2010,07,06,00,47,9.80
2010,07,06,00,48,9.80
2010,07,06,00,49,9.80
2010,07,06,00,50,9.90
2010,07,06,00,51,9.90
2010,07,06,00,52,9.90
2010,07,06,00,53,9.90
2010,07,06,00,54,9.90
2010,07,06,00,55,9.90
2010,07,06,00,56,9.90
2010,07,06,00,57,9.90
2010,07,06,00,58,9.80
2010,07,06,00,59,9.80
2010,07,06,01,00,9.80
2010,07,06,01,01,9.80
2010,07,06,01,02,9.90
2010,07,06,01,03,9.90
2010,07,06,01,04,9.80
2010,07,06,01,05,9.80
2010,07,06,01,06,9.80
2010,07,06,01,07,9.80
2010,07,06,01,08,9.80
2010,07,06,01,09,9.80
2010,07,06,01,10,9.80
2010,07,06,01,11,9.80
2010,07,06,01,12,9.80
2010,07,06,01,13,9.80
2010,07,06,01,14,9.80
2010,07,06,01,15,9.80
2010,07,06,01,16,9.80
2010,07,06,01,17,9.80
2010,07,06,01,18,9.80
2010,07,06,01,19,9.80
2010,07,06,01,20,9.80
2010,07,06,01,21,9.80
2010,07,06,01,22,9.80
2010,07,06,01,23,9.80
2010,07,06,01,24,9.80
2010,07,06,01,25,9.80
2010,07,06,01,26,9.80
2010,07,06,01,27,9.80
2010,07,06,01,28,9.80
2010,07,06,01,29,9.80
2010,07,06,01,30,9.90
2010,07,06,01,31,9.90
2010,07,06,01,32,9.90
2010,07,06,01,33,9.90
2010,07,06,01,34,9.90
2010,07,06,01,35,9.90
2010,07,06,01,36,9.90
2010,07,06,01,37,9.90
2010,07,06,01,38,9.90
2010,07,06,01,39,9.90
2010,07,06,01,40,9.90
2010,07,06,01,41,9.90
2010,07,06,01,42,9.90
2010,07,06,01,43,9.90
2010,07,06,01,44,9.80
2010,07,06,01,45,9.80
2010,07,06,01,46,9.80
2010,07,06,01,47,9.80
2010,07,06,01,48,9.80
2010,07,06,01,49,9.80
2010,07,06,01,50,9.70
2010,07,06,01,51,9.70
2010,07,06,01,52,9.70
2010,07,06,01,53,9.70
2010,07,06,01,54,9.70
2010,07,06,01,55,9.70
2010,07,06,01,56,9.70
2010,07,06,01,57,9.70
2010,07,06,01,58,9.70
2010,07,06,01,59,9.70
2010,07,06,02,00,9.70
2010,07,06,02,01,9.70
2010,07,06,02,02,9.70
2010,07,06,02,03,9.70
2010,07,06,02,04,9.60
2010,07,06,02,05,9.60
2010,07,06,02,06,9.60
2010,07,06,02,07,9.60
2010,07,06,02,08,9.60
2010,07,06,02,09,9.60
2010,07,06,02,10,9.60
2010,07,06,02,11,9.60
2010,07,06,02,12,9.60
2010,07,06,02,13,9.60
2010,07,06,02,14,9.60
2010,07,06,02,15,9.60
2010,07,06,02,16,9.60
2010,07,06,02,17,9.60
2010,07,06,02,18,9.50
2010,07,06,02,19,9.50
2010,07,06,02,20,9.50
2010,07,06,02,21,9.50
2010,07,06,02,22,9.50
2010,07,06,02,23,9.50
2010,07,06,02,24,9.40
2010,07,06,02,25,9.40
2010,07,06,02,26,9.40
2010,07,06,02,27,9.40
2010,07,06,02,28,9.40
2010,07,06,02,29,9.40
2010,07,06,02,30,9.40
2010,07,06,02,31,9.40
2010,07,06,02,32,9.40
2010,07,06,02,33,9.40
2010,07,06,02,34,9.40
2010,07,06,02,35,9.40
2010,07,06,02,36,9.40
2010,07,06,02,37,9.40
2010,07,06,02,38,9.40
2010,07,06,02,39,9.40
2010,07,06,02,40,9.40
2010,07,06,02,41,9.40
2010,07,06,02,42,9.40
2010,07,06,02,43,9.40
2010,07,06,02,44,9.40
2010,07,06,02,45,9.40
2010,07,06,02,46,9.40
2010,07,06,02,47,9.40
2010,07,06,02,48,9.40
2010,07,06,02,49,9.40
2010,07,06,02,50,9.40
2010,07,06,02,51,9.40
2010,07,06,02,52,9.40
2010,07,06,02,53,9.40
2010,07,06,02,54,9.40
2010,07,06,02,55,9.30
2010,07,06,02,56,9.30
2010,07,06,02,57,9.30
2010,07,06,02,58,9.30
2010,07,06,02,59,9.40
2010,07,06,03,00,9.40
2010,07,06,03,01,9.40
2010,07,06,03,02,9.40
2010,07,06,03,03,9.40
2010,07,06,03,04,9.40
2010,07,06,03,05,9.40
2010,07,06,03,06,9.40
2010,07,06,03,07,9.40
2010,07,06,03,08,9.40
2010,07,06,03,09,9.40
2010,07,06,03,10,9.40
2010,07,06,03,11,9.50
2010,07,06,03,12,9.50
2010,07,06,03,13,9.40
2010,07,06,03,14,9.40
2010,07,06,03,15,9.40
2010,07,06,03,16,9.40
2010,07,06,03,17,9.40
2010,07,06,03,18,9.40
2010,07,06,03,19,9.40
2010,07,06,03,20,9.40
2010,07,06,03,21,9.40
2010,07,06,03,22,9.40
2010,07,06,03,23,9.40
2010,07,06,03,24,9.40
2010,07,06,03,25,9.40
2010,07,06,03,26,9.30
2010,07,06,03,27,9.30
2010,07,06,03,28,9.30
2010,07,06,03,29,9.30
2010,07,06,03,30,9.30
2010,07,06,03,31,9.30
2010,07,06,03,32,9.30
2010,07,06,03,33,9.30
2010,07,06,03,34,9.30
2010,07,06,03,35,9.30
2010,07,06,03,36,9.30
2010,07,06,03,37,9.30
2010,07,06,03,38,9.30
2010,07,06,03,39,9.30
2010,07,06,03,40,9.30
2010,07,06,03,41,9.20
2010,07,06,03,42,9.30
2010,07,06,03,43,9.30
2010,07,06,03,44,9.30
2010,07,06,03,45,9.30
2010,07,06,03,46,9.20
2010,07,06,03,47,9.20
2010,07,06,03,48,9.20
2010,07,06,03,49,9.20
2010,07,06,03,50,9.20
2010,07,06,03,51,9.20
2010,07,06,03,52,9.20
2010,07,06,03,53,9.20
2010,07,06,03,54,9.20
2010,07,06,03,55,9.20
2010,07,06,03,56,9.20
2010,07,06,03,57,9.20
2010,07,06,03,58,9.20
2010,07,06,03,59,9.20
2010,07,06,04,00,9.20
2010,07,06,04,01,9.20
2010,07,06,04,02,9.20
2010,07,06,04,03,9.20
2010,07,06,04,04,9.20
2010,07,06,04,05,9.20
2010,07,06,04,06,9.20
2010,07,06,04,07,9.20
2010,07,06,04,08,9.20
2010,07,06,04,09,9.20
2010,07,06,04,10,9.20
2010,07,06,04,11,9.20
2010,07,06,04,12,9.20
2010,07,06,04,13,9.20
2010,07,06,04,14,9.20
2010,07,06,04,15,9.10
2010,07,06,04,16,9.20
2010,07,06,04,17,9.10
2010,07,06,04,18,9.10
2010,07,06,04,19,9.10
2010,07,06,04,20,9.10
2010,07,06,04,21,9.10
2010,07,06,04,22,9.10
2010,07,06,04,23,9.10
2010,07,06,04,24,9.10
2010,07,06,04,25,9.10
2010,07,06,04,26,9.10
2010,07,06,04,27,9.10
2010,07,06,04,28,9.10
2010,07,06,04,29,9.10
2010,07,06,04,30,9.00
2010,07,06,04,31,9.00
2010,07,06,04,32,9.00
2010,07,06,04,33,9.00
2010,07,06,04,34,9.10
2010,07,06,04,35,9.10
2010,07,06,04,36,9.10
2010,07,06,04,37,9.10
2010,07,06,04,38,9.10
2010,07,06,04,39,9.10
2010,07,06,04,40,9.10
2010,07,06,04,41,9.10
2010,07,06,04,42,9.10
2010,07,06,04,43,9.10
2010,07,06,04,44,9.10
2010,07,06,04,45,9.10
2010,07,06,04,46,9.10
2010,07,06,04,47,9.10
2010,07,06,04,48,9.10
2010,07,06,04,49,9.10
2010,07,06,04,50,9.10
2010,07,06,04,51,9.10
2010,07,06,04,52,9.10
2010,07,06,04,53,9.10
2010,07,06,04,54,9.10
2010,07,06,04,55,9.10
2010,07,06,04,56,9.10
2010,07,06,04,57,9.10
2010,07,06,04,58,9.00
2010,07,06,04,59,9.00
2010,07,06,05,00,9.00
2010,07,06,05,01,9.00
2010,07,06,05,02,9.00
2010,07,06,05,03,9.00
2010,07,06,05,04,9.00
2010,07,06,05,05,9.00
2010,07,06,05,06,9.00
2010,07,06,05,07,9.00
2010,07,06,05,08,9.00
2010,07,06,05,09,9.00
2010,07,06,05,10,9.00
2010,07,06,05,11,9.00
2010,07,06,05,12,9.00
2010,07,06,05,13,8.90
2010,07,06,05,14,8.90
2010,07,06,05,15,8.90
2010,07,06,05,16,8.90
2010,07,06,05,17,8.80
2010,07,06,05,18,8.80
2010,07,06,05,19,8.80
2010,07,06,05,20,8.80
2010,07,06,05,21,8.80
2010,07,06,05,22,8.80
2010,07,06,05,23,8.80
2010,07,06,05,24,8.80
2010,07,06,05,25,8.80
2010,07,06,05,26,8.90
2010,07,06,05,27,8.90
2010,07,06,05,28,8.90
2010,07,06,05,29,8.90
2010,07,06,05,30,8.90
2010,07,06,05,31,8.90
2010,07,06,05,32,8.90
2010,07,06,05,33,8.90
2010,07,06,05,34,8.90
2010,07,06,05,35,9.00
2010,07,06,05,36,9.00
2010,07,06,05,37,9.00
2010,07,06,05,38,9.00
2010,07,06,05,39,9.00
2010,07,06,05,40,9.00
2010,07,06,05,41,9.00
2010,07,06,05,42,9.00
2010,07,06,05,43,9.00
2010,07,06,05,44,9.00
2010,07,06,05,45,9.00
2010,07,06,05,46,9.00
2010,07,06,05,47,8.90
2010,07,06,05,48,8.90
2010,07,06,05,49,9.00
2010,07,06,05,50,8.90
2010,07,06,05,51,8.90
2010,07,06,05,52,8.90
2010,07,06,05,53,8.90
2010,07,06,05,54,8.90
2010,07,06,05,55,8.90
2010,07,06,05,56,8.90
2010,07,06,05,57,8.90
2010,07,06,05,58,8.90
2010,07,06,05,59,8.90
2010,07,06,06,00,8.90
2010,07,06,06,01,8.90
2010,07,06,06,02,8.90
2010,07,06,06,03,8.90
2010,07,06,06,04,8.90
2010,07,06,06,05,8.90
2010,07,06,06,06,8.90
2010,07,06,06,07,8.90
2010,07,06,06,08,8.90
2010,07,06,06,09,9.00
2010,07,06,06,10,9.00
2010,07,06,06,11,9.00
2010,07,06,06,12,9.00
2010,07,06,06,13,9.00
2010,07,06,06,14,9.00
2010,07,06,06,15,9.10
2010,07,06,06,16,9.10
2010,07,06,06,17,9.10
2010,07,06,06,18,9.20
2010,07,06,06,19,9.20
2010,07,06,06,20,9.20
2010,07,06,06,21,9.20
2010,07,06,06,22,9.30
2010,07,06,06,23,9.30
2010,07,06,06,24,9.30
2010,07,06,06,25,9.30
2010,07,06,06,26,9.30
2010,07,06,06,27,9.30
2010,07,06,06,28,9.30
2010,07,06,06,29,9.30
2010,07,06,06,30,9.30
2010,07,06,06,31,9.40
2010,07,06,06,32,9.40
2010,07,06,06,33,9.40
2010,07,06,06,34,9.40
2010,07,06,06,35,9.50
2010,07,06,06,36,9.50
2010,07,06,06,37,9.60
2010,07,06,06,38,9.60
2010,07,06,06,39,9.70
2010,07,06,06,40,9.80
2010,07,06,06,41,9.80
2010,07,06,06,42,9.90
2010,07,06,06,43,9.90
2010,07,06,06,44,10.00
2010,07,06,06,45,10.10
2010,07,06,06,46,10.10
2010,07,06,06,47,10.20
2010,07,06,06,48,10.30
2010,07,06,06,49,10.30
2010,07,06,06,50,10.40
2010,07,06,06,51,10.50
2010,07,06,06,52,10.60
2010,07,06,06,53,10.60
2010,07,06,06,54,10.70
2010,07,06,06,55,10.70
2010,07,06,06,56,10.80
2010,07,06,06,57,10.80
2010,07,06,06,58,10.80
2010,07,06,06,59,10.90
2010,07,06,07,00,11.00
2010,07,06,07,01,11.00
2010,07,06,07,02,11.10
2010,07,06,07,03,11.10
2010,07,06,07,04,11.20
2010,07,06,07,05,11.20
2010,07,06,07,06,11.30
2010,07,06,07,07,11.30
2010,07,06,07,08,11.40
2010,07,06,07,09,11.40
2010,07,06,07,10,11.50
2010,07,06,07,11,11.50
2010,07,06,07,12,11.60
2010,07,06,07,13,11.60
2010,07,06,07,14,11.70
2010,07,06,07,15,11.70
2010,07,06,07,16,11.70
2010,07,06,07,17,11.80
2010,07,06,07,18,11.80
2010,07,06,07,19,11.90
2010,07,06,07,20,11.90
2010,07,06,07,21,12.00
2010,07,06,07,22,12.00
2010,07,06,07,23,12.10
2010,07,06,07,24,12.20
2010,07,06,07,25,12.20
2010,07,06,07,26,12.20
2010,07,06,07,27,12.30
2010,07,06,07,28,12.30
2010,07,06,07,29,12.30
2010,07,06,07,30,12.30
2010,07,06,07,31,12.30
2010,07,06,07,32,12.40
2010,07,06,07,33,12.40
2010,07,06,07,34,12.40
2010,07,06,07,35,12.50
2010,07,06,07,36,12.50
2010,07,06,07,37,12.60
2010,07,06,07,38,12.70
2010,07,06,07,39,12.70
2010,07,06,07,40,12.80
2010,07,06,07,41,12.80
2010,07,06,07,42,12.90
2010,07,06,07,43,12.90
2010,07,06,07,44,13.00
2010,07,06,07,45,13.00
2010,07,06,07,46,13.10
2010,07,06,07,47,13.10
2010,07,06,07,48,13.20
2010,07,06,07,49,13.20
2010,07,06,07,50,13.30
2010,07,06,07,51,13.30
2010,07,06,07,52,13.30
2010,07,06,07,53,13.40
2010,07,06,07,54,13.40
2010,07,06,07,55,13.40
2010,07,06,07,56,13.40
2010,07,06,07,57,13.40
2010,07,06,07,58,13.40
2010,07,06,07,59,13.40
2010,07,06,08,00,13.40
2010,07,06,08,01,13.50
2010,07,06,08,02,13.50
2010,07,06,08,03,13.60
2010,07,06,08,04,13.60
2010,07,06,08,05,13.70
2010,07,06,08,06,13.80
2010,07,06,08,07,13.90
2010,07,06,08,08,14.00
2010,07,06,08,09,14.10
2010,07,06,08,10,14.10
2010,07,06,08,11,14.20
2010,07,06,08,12,14.20
2010,07,06,08,13,14.20
2010,07,06,08,14,14.30
2010,07,06,08,15,14.30
2010,07,06,08,16,14.30
2010,07,06,08,17,14.30
2010,07,06,08,18,14.40
2010,07,06,08,19,14.40
2010,07,06,08,20,14.50
2010,07,06,08,21,14.50
2010,07,06,08,22,14.60
2010,07,06,08,23,14.70
2010,07,06,08,24,14.70
2010,07,06,08,25,14.80
2010,07,06,08,26,14.80
2010,07,06,08,27,14.90
2010,07,06,08,28,15.00
2010,07,06,08,29,15.10
2010,07,06,08,30,15.10
2010,07,06,08,31,15.20
2010,07,06,08,32,15.30
2010,07,06,08,33,15.30
2010,07,06,08,34,15.30
2010,07,06,08,35,15.30
2010,07,06,08,36,15.30
2010,07,06,08,37,15.40
2010,07,06,08,38,15.40
2010,07,06,08,39,15.50
2010,07,06,08,40,15.50
2010,07,06,08,41,15.60
2010,07,06,08,42,15.70
2010,07,06,08,43,15.70
2010,07,06,08,44,15.80
2010,07,06,08,45,15.90
2010,07,06,08,46,15.90
2010,07,06,08,47,16.00
2010,07,06,08,48,16.00
2010,07,06,08,49,16.10
2010,07,06,08,50,16.20
2010,07,06,08,51,16.30
2010,07,06,08,52,16.30
2010,07,06,08,53,16.30
2010,07,06,08,54,16.20
2010,07,06,08,55,16.20
2010,07,06,08,56,16.30
2010,07,06,08,57,16.30
2010,07,06,08,58,16.30
2010,07,06,08,59,16.30
2010,07,06,09,00,16.40
2010,07,06,09,01,16.40
2010,07,06,09,02,16.50
2010,07,06,09,03,16.70
2010,07,06,09,04,16.80
2010,07,06,09,05,16.90
2010,07,06,09,06,17.00
2010,07,06,09,07,17.10
2010,07,06,09,08,17.20
2010,07,06,09,09,17.20
2010,07,06,09,10,17.30
2010,07,06,09,11,17.30
2010,07,06,09,12,17.40
2010,07,06,09,13,17.50
2010,07,06,09,14,17.60
2010,07,06,09,15,17.70
2010,07,06,09,16,17.80
2010,07,06,09,17,17.80
2010,07,06,09,18,17.90
2010,07,06,09,19,17.90
2010,07,06,09,20,18.00
2010,07,06,09,21,18.00
2010,07,06,09,22,17.90
2010,07,06,09,23,17.90
2010,07,06,09,24,17.90
2010,07,06,09,25,17.90
2010,07,06,09,26,18.00
2010,07,06,09,27,18.10
2010,07,06,09,28,18.10
2010,07,06,09,29,18.00
2010,07,06,09,30,18.00
2010,07,06,09,31,17.90
2010,07,06,09,32,17.90
2010,07,06,09,33,17.90
2010,07,06,09,34,17.90
2010,07,06,09,35,17.80
2010,07,06,09,36,17.80
2010,07,06,09,37,17.80
2010,07,06,09,38,17.80
2010,07,06,09,39,17.80
2010,07,06,09,40,17.80
2010,07,06,09,41,17.80
2010,07,06,09,42,17.80
2010,07,06,09,43,17.70
2010,07,06,09,44,17.60
2010,07,06,09,45,17.60
2010,07,06,09,46,17.60
2010,07,06,09,47,17.60
2010,07,06,09,48,17.60
2010,07,06,09,49,17.60
2010,07,06,09,50,17.60
2010,07,06,09,51,17.60
2010,07,06,09,52,17.60
2010,07,06,09,53,17.60
2010,07,06,09,54,17.70
2010,07,06,09,55,17.70
2010,07,06,09,56,17.80
2010,07,06,09,57,17.80
2010,07,06,09,58,17.90
2010,07,06,09,59,18.00
2010,07,06,10,00,18.10
2010,07,06,10,01,18.20
2010,07,06,10,02,18.30
2010,07,06,10,03,18.40
2010,07,06,10,04,18.40
2010,07,06,10,05,18.50
2010,07,06,10,06,18.50
2010,07,06,10,07,18.60
2010,07,06,10,08,18.60
2010,07,06,10,09,18.60
2010,07,06,10,10,18.70
2010,07,06,10,11,18.80
2010,07,06,10,12,18.90
2010,07,06,10,13,19.00
2010,07,06,10,14,19.10
2010,07,06,10,15,19.10
2010,07,06,10,16,19.10
2010,07,06,10,17,19.10
2010,07,06,10,18,19.10
2010,07,06,10,19,19.20
2010,07,06,10,20,19.30
2010,07,06,10,21,19.40
2010,07,06,10,22,19.50
2010,07,06,10,23,19.50
2010,07,06,10,24,19.60
2010,07,06,10,25,19.60
2010,07,06,10,26,19.70
2010,07,06,10,27,19.70
2010,07,06,10,28,19.70
2010,07,06,10,29,19.70
2010,07,06,10,30,19.80
2010,07,06,10,31,19.90
2010,07,06,10,32,20.00
2010,07,06,10,33,20.10
2010,07,06,10,34,20.10
2010,07,06,10,35,20.20
2010,07,06,10,36,20.20
2010,07,06,10,37,20.20
2010,07,06,10,38,20.30
2010,07,06,10,39,20.30
2010,07,06,10,40,20.30
2010,07,06,10,41,20.30
2010,07,06,10,42,20.40
2010,07,06,10,43,20.40
2010,07,06,10,44,20.50
2010,07,06,10,45,20.50
2010,07,06,10,46,20.60
2010,07,06,10,47,20.70
2010,07,06,10,48,20.80
2010,07,06,10,49,20.80
2010,07,06,10,50,20.90
2010,07,06,10,51,20.90
2010,07,06,10,52,21.00
2010,07,06,10,53,21.10
2010,07,06,10,54,21.10
2010,07,06,10,55,21.20
2010,07,06,10,56,21.20
2010,07,06,10,57,21.20
2010,07,06,10,58,21.20
2010,07,06,10,59,21.20
2010,07,06,11,00,21.10
2010,07,06,11,01,21.10
2010,07,06,11,02,21.10
2010,07,06,11,03,21.10
2010,07,06,11,04,21.10
2010,07,06,11,05,21.20
2010,07,06,11,06,21.20
2010,07,06,11,07,21.20
2010,07,06,11,08,21.20
2010,07,06,11,09,21.30
2010,07,06,11,10,21.30
2010,07,06,11,11,21.30
2010,07,06,11,12,21.40
2010,07,06,11,13,21.40
2010,07,06,11,14,21.50
2010,07,06,11,15,21.60
2010,07,06,11,16,21.60
2010,07,06,11,17,21.70
2010,07,06,11,18,21.80
2010,07,06,11,19,21.80
2010,07,06,11,20,21.90
2010,07,06,11,21,21.90
2010,07,06,11,22,21.90
2010,07,06,11,23,21.90
2010,07,06,11,24,21.90
2010,07,06,11,25,21.90
2010,07,06,11,26,21.90
2010,07,06,11,27,21.90
2010,07,06,11,28,21.80
2010,07,06,11,29,21.70
2010,07,06,11,30,21.60
2010,07,06,11,31,21.60
2010,07,06,11,32,21.60
2010,07,06,11,33,21.60
2010,07,06,11,34,21.60
2010,07,06,11,35,21.60
2010,07,06,11,36,21.60
2010,07,06,11,37,21.70
2010,07,06,11,38,21.80
2010,07,06,11,39,21.80
2010,07,06,11,40,21.80
2010,07,06,11,41,21.80
2010,07,06,11,42,21.80
2010,07,06,11,43,21.80
2010,07,06,11,44,21.80
2010,07,06,11,45,21.80
2010,07,06,11,46,21.80
2010,07,06,11,47,21.80
2010,07,06,11,48,21.80
2010,07,06,11,49,21.80
2010,07,06,11,50,21.90
2010,07,06,11,51,22.00
2010,07,06,11,52,22.10
2010,07,06,11,53,22.10
2010,07,06,11,54,22.10
2010,07,06,11,55,22.10
2010,07,06,11,56,22.00
2010,07,06,11,57,21.90
2010,07,06,11,58,21.80
2010,07,06,11,59,21.70
2010,07,06,12,00,21.60
2010,07,06,12,01,21.40
2010,07,06,12,02,21.20
2010,07,06,12,03,21.20
2010,07,06,12,04,21.10
2010,07,06,12,05,21.10
2010,07,06,12,06,21.10
2010,07,06,12,07,21.00
2010,07,06,12,08,20.90
2010,07,06,12,09,20.80
2010,07,06,12,10,20.70
2010,07,06,12,11,20.50
2010,07,06,12,12,20.40
2010,07,06,12,13,20.40
2010,07,06,12,14,20.30
2010,07,06,12,15,20.20
2010,07,06,12,16,20.30
2010,07,06,12,17,20.30
2010,07,06,12,18,20.40
2010,07,06,12,19,20.60
2010,07,06,12,20,20.70
2010,07,06,12,21,20.70
2010,07,06,12,22,20.60
2010,07,06,12,23,20.60
2010,07,06,12,24,20.50
2010,07,06,12,25,20.30
2010,07,06,12,26,20.10
2010,07,06,12,27,20.00
2010,07,06,12,28,20.00
2010,07,06,12,29,20.10
2010,07,06,12,30,20.20
2010,07,06,12,31,20.30
2010,07,06,12,32,20.50
2010,07,06,12,33,20.60
2010,07,06,12,34,20.70
2010,07,06,12,35,20.90
2010,07,06,12,36,21.10
2010,07,06,12,37,21.20
2010,07,06,12,38,21.20
2010,07,06,12,39,21.20
2010,07,06,12,40,21.10
2010,07,06,12,41,21.10
2010,07,06,12,42,21.10
2010,07,06,12,43,21.10
2010,07,06,12,44,21.10
2010,07,06,12,45,21.10
2010,07,06,12,46,21.10
2010,07,06,12,47,21.10
2010,07,06,12,48,21.10
2010,07,06,12,49,21.10
2010,07,06,12,50,21.10
2010,07,06,12,51,21.10
2010,07,06,12,52,21.00
2010,07,06,12,53,21.00
2010,07,06,12,54,20.90
2010,07,06,12,55,21.00
2010,07,06,12,56,21.00
2010,07,06,12,57,21.00
2010,07,06,12,58,21.00
2010,07,06,12,59,20.90
2010,07,06,13,00,20.90
2010,07,06,13,01,20.80
2010,07,06,13,02,20.80
2010,07,06,13,03,20.80
2010,07,06,13,04,20.80
2010,07,06,13,05,20.80
2010,07,06,13,06,20.80
2010,07,06,13,07,20.80
2010,07,06,13,08,20.80
2010,07,06,13,09,20.90
2010,07,06,13,10,20.80
2010,07,06,13,11,20.70
2010,07,06,13,12,20.60
2010,07,06,13,13,20.50
2010,07,06,13,14,20.40
2010,07,06,13,15,20.40
2010,07,06,13,16,20.40
2010,07,06,13,17,20.50
2010,07,06,13,18,20.50
2010,07,06,13,19,20.60
2010,07,06,13,20,20.70
2010,07,06,13,21,20.70
2010,07,06,13,22,20.80
2010,07,06,13,23,20.80
2010,07,06,13,24,20.80
2010,07,06,13,25,20.80
2010,07,06,13,26,20.80
2010,07,06,13,27,20.90
2010,07,06,13,28,20.90
2010,07,06,13,29,20.90
2010,07,06,13,30,21.00
2010,07,06,13,31,21.00
2010,07,06,13,32,21.00
2010,07,06,13,33,21.10
2010,07,06,13,34,21.20
2010,07,06,13,35,21.20
2010,07,06,13,36,21.30
2010,07,06,13,37,21.40
2010,07,06,13,38,21.40
2010,07,06,13,39,21.40
2010,07,06,13,40,21.30
2010,07,06,13,41,21.30
2010,07,06,13,42,21.30
2010,07,06,13,43,21.40
2010,07,06,13,44,21.40
2010,07,06,13,45,21.50
2010,07,06,13,46,21.40
2010,07,06,13,47,21.40
2010,07,06,13,48,21.40
2010,07,06,13,49,21.40
2010,07,06,13,50,21.40
2010,07,06,13,51,21.40
2010,07,06,13,52,21.30
2010,07,06,13,53,21.30
2010,07,06,13,54,21.30
2010,07,06,13,55,21.30
2010,07,06,13,56,21.10
2010,07,06,13,57,21.00
2010,07,06,13,58,20.90
2010,07,06,13,59,20.80
2010,07,06,14,00,20.70
2010,07,06,14,01,20.60
2010,07,06,14,02,20.60
2010,07,06,14,03,20.40
2010,07,06,14,04,20.20
2010,07,06,14,05,20.10
2010,07,06,14,06,20.10
2010,07,06,14,07,20.10
2010,07,06,14,08,20.10
2010,07,06,14,09,20.10
2010,07,06,14,10,20.10
2010,07,06,14,11,20.20
2010,07,06,14,12,20.20
2010,07,06,14,13,20.20
2010,07,06,14,14,20.20
2010,07,06,14,15,20.30
2010,07,06,14,16,20.30
2010,07,06,14,17,20.30
2010,07,06,14,18,20.30
2010,07,06,14,19,20.30
2010,07,06,14,20,20.30
2010,07,06,14,21,20.40
2010,07,06,14,22,20.40
2010,07,06,14,23,20.40
2010,07,06,14,24,20.40
2010,07,06,14,25,20.30
2010,07,06,14,26,20.30
2010,07,06,14,27,20.30
2010,07,06,14,28,20.30
2010,07,06,14,29,20.30
2010,07,06,14,30,20.40
2010,07,06,14,31,20.40
2010,07,06,14,32,20.40
2010,07,06,14,33,20.50
2010,07,06,14,34,20.50
2010,07,06,14,35,20.60
2010,07,06,14,36,20.60
2010,07,06,14,37,20.70
2010,07,06,14,38,20.70
2010,07,06,14,39,20.80
2010,07,06,14,40,20.80
2010,07,06,14,41,20.90
2010,07,06,14,42,21.00
2010,07,06,14,43,21.10
2010,07,06,14,44,21.10
2010,07,06,14,45,21.10
2010,07,06,14,46,21.20
2010,07,06,14,47,21.30
2010,07,06,14,48,21.30
2010,07,06,14,49,21.30
2010,07,06,14,50,21.30
2010,07,06,14,51,21.30
2010,07,06,14,52,21.30
2010,07,06,14,53,21.30
2010,07,06,14,54,21.30
2010,07,06,14,55,21.30
2010,07,06,14,56,21.40
2010,07,06,14,57,21.40
2010,07,06,14,58,21.40
2010,07,06,14,59,21.50
2010,07,06,15,00,21.60
2010,07,06,15,01,21.70
2010,07,06,15,02,21.80
2010,07,06,15,03,21.90
2010,07,06,15,04,21.90
2010,07,06,15,05,22.00
2010,07,06,15,06,22.10
2010,07,06,15,07,22.10
2010,07,06,15,08,22.20
2010,07,06,15,09,22.20
2010,07,06,15,10,22.30
2010,07,06,15,11,22.30
2010,07,06,15,12,22.30
2010,07,06,15,13,22.40
2010,07,06,15,14,22.60
2010,07,06,15,15,22.70
2010,07,06,15,16,22.80
2010,07,06,15,17,22.90
2010,07,06,15,18,23.00
2010,07,06,15,19,23.10
2010,07,06,15,20,23.10
2010,07,06,15,21,23.20
2010,07,06,15,22,23.20
2010,07,06,15,23,23.20
2010,07,06,15,24,23.10
2010,07,06,15,25,23.10
2010,07,06,15,26,23.00
2010,07,06,15,27,22.90
2010,07,06,15,28,22.80
2010,07,06,15,29,22.60
2010,07,06,15,30,22.50
2010,07,06,15,31,22.40
2010,07,06,15,32,22.30
2010,07,06,15,33,22.20
2010,07,06,15,34,22.10
2010,07,06,15,35,22.10
2010,07,06,15,36,22.00
2010,07,06,15,37,22.00
2010,07,06,15,38,22.00
2010,07,06,15,39,22.00
2010,07,06,15,40,22.10
2010,07,06,15,41,22.10
2010,07,06,15,42,22.10
2010,07,06,15,43,22.20
2010,07,06,15,44,22.30
2010,07,06,15,45,22.30
2010,07,06,15,46,22.40
2010,07,06,15,47,22.40
2010,07,06,15,48,22.40
2010,07,06,15,49,22.40
2010,07,06,15,50,22.50
2010,07,06,15,51,22.40
2010,07,06,15,52,22.40
2010,07,06,15,53,22.40
2010,07,06,15,54,22.40
2010,07,06,15,55,22.40
2010,07,06,15,56,22.40
2010,07,06,15,57,22.40
2010,07,06,15,58,22.30
2010,07,06,15,59,22.30
2010,07,06,16,00,22.20
2010,07,06,16,01,22.20
2010,07,06,16,02,22.10
2010,07,06,16,03,22.00
2010,07,06,16,04,22.00
2010,07,06,16,05,21.90
2010,07,06,16,06,21.90
2010,07,06,16,07,21.90
2010,07,06,16,08,21.80
2010,07,06,16,09,21.80
2010,07,06,16,10,21.80
2010,07,06,16,11,21.80
2010,07,06,16,12,21.80
2010,07,06,16,13,21.80
2010,07,06,16,14,21.80
2010,07,06,16,15,21.70
2010,07,06,16,16,21.70
2010,07,06,16,17,21.70
2010,07,06,16,18,21.80
2010,07,06,16,19,21.80
2010,07,06,16,20,21.80
2010,07,06,16,21,21.80
2010,07,06,16,22,21.80
2010,07,06,16,23,21.80
2010,07,06,16,24,21.80
2010,07,06,16,25,21.80
2010,07,06,16,26,21.80
2010,07,06,16,27,21.80
2010,07,06,16,28,21.80
2010,07,06,16,29,21.80
2010,07,06,16,30,21.80
2010,07,06,16,31,21.70
2010,07,06,16,32,21.70
2010,07,06,16,33,21.60
2010,07,06,16,34,21.60
2010,07,06,16,35,21.50
2010,07,06,16,36,21.40
2010,07,06,16,37,21.40
2010,07,06,16,38,21.40
2010,07,06,16,39,21.40
2010,07,06,16,40,21.40
2010,07,06,16,41,21.50
2010,07,06,16,42,21.50
2010,07,06,16,43,21.50
2010,07,06,16,44,21.60
2010,07,06,16,45,21.60
2010,07,06,16,46,21.60
2010,07,06,16,47,21.70
2010,07,06,16,48,21.70
2010,07,06,16,49,21.80
2010,07,06,16,50,21.80
2010,07,06,16,51,21.90
2010,07,06,16,52,21.90
2010,07,06,16,53,22.00
2010,07,06,16,54,22.10
2010,07,06,16,55,22.20
2010,07,06,16,56,22.20
2010,07,06,16,57,22.30
2010,07,06,16,58,22.40
2010,07,06,16,59,22.40
2010,07,06,17,00,22.50
2010,07,06,17,01,22.60
2010,07,06,17,02,22.60
2010,07,06,17,03,22.70
2010,07,06,17,04,22.70
2010,07,06,17,05,22.70
2010,07,06,17,06,22.70
2010,07,06,17,07,22.60
2010,07,06,17,08,22.50
2010,07,06,17,09,22.40
2010,07,06,17,10,22.40
2010,07,06,17,11,22.30
2010,07,06,17,12,22.10
2010,07,06,17,13,22.00
2010,07,06,17,14,22.00
2010,07,06,17,15,21.90
2010,07,06,17,16,21.90
2010,07,06,17,17,21.90
2010,07,06,17,18,21.90
2010,07,06,17,19,21.90
2010,07,06,17,20,21.90
2010,07,06,17,21,21.90
2010,07,06,17,22,22.00
2010,07,06,17,23,22.00
2010,07,06,17,24,22.10
2010,07,06,17,25,22.20
2010,07,06,17,26,22.30
2010,07,06,17,27,22.50
2010,07,06,17,28,22.60
2010,07,06,17,29,22.80
2010,07,06,17,30,22.90
2010,07,06,17,31,23.00
2010,07,06,17,32,23.10
2010,07,06,17,33,23.20
2010,07,06,17,34,23.30
2010,07,06,17,35,23.40
2010,07,06,17,36,23.40
2010,07,06,17,37,23.50
2010,07,06,17,38,23.60
2010,07,06,17,39,23.60
2010,07,06,17,40,23.60